Retour au catalogue

CZ-6A DEB

ActifSSO
NORAD 54625·DEBRIS·🇨🇳 China

Lancé Nov 11, 2022 depuis Taiyuan Satellite Launch Center

Loading…

Prochains Passages (prochaines 24 heures)

TLE

FraisSource: Space-Track

Époque: Sep 14, 2026, 08:44 UTC

1 54625U 22151PB  26257.36425387  .00000170  00000-0  15510-3 0  9996
2 54625  98.9521 222.5777 0131987 213.4040 145.8742 13.91999674193724

Suivez CZ-6A DEB en temps réel avec AllMySat

Download on the App Store